Location: Gu�tanj
(46.5431°N, 14.9692°E)
Time: 03:53:01
(UTC+00:00)

X-37B - Pass Details

Date: 30 September 2021
Orbit: 445 x 447 km, 45.0° (Epoch: 24 October)

Event Time Altitude Azimuth Distance (km) Brightness Sun altitude
Exits shadow 02:16:30 20° 97° (E) 1,076 3.3 -27.6°
Drops below altitude 10° 02:17:45 10° 94° (E) 1,566 4.3 -27.4°
Enters shadow 03:14:59 -67° 281° (WNW) 12,256 8.1 -18.3°
